OBJECT B, 49316

Orbit data source: Space-Track

You're viewing an Uncataloged Satellite

Recently launched and/or uncataloged satellites may have evolving metadata. Metadata may include but not limited to: Owner, Maufacturer, Bus, Motor, and Mission.

OBJECT B, 49316 is a Chinese satellite in SSO that was launched on Thu, 14 Oct 2021 UTC via a CHANG ZHENG 2D launch vehicle from the Taiyaun Space Center, China (TSC). Unknown objects in Earth's orbit typically refer to objects detected orbiting the Earth but have not yet been identified or cataloged. These objects could be anything from previously untracked satellites, spent rocket stages, debris from satellite collisions, or even natural meteoroids temporarily captured by Earth's gravity.

Loading next visibility...
Identifier
49316, 2021-091B
Orbit
SSO
Country
Flag of CNCN / PRC
Related business
Flag of CNNanjing University (CN)
Manufacturer
SAST
Mission
Operational Amateur Astronomy
Bus & Motor
CHASE, Unknown motor
Mass
500 kg wet, 500 kg dry
Launch date (UTC)
2021-10-14 (5 years ago)
Launch vehicle
CHANG ZHENG 2D
Launch site
Taiyaun Space Center, China (TSC)
Object type
Unknown
Shape & HBR
Box + 2 Pan, 2.5 m
Radar Cross Section
3.585 m², Large (>1 m²)

Expand to show TLE details & history
Last TLE update: 22 hours ago

TLE from 22 hours ago
0 OBJECT B
1 49316U 21091B   26172.54079062  .00001977  00000-0  98738-4 0  9990
2 49316  97.4477   0.0491 0014224  31.7391 328.4697 15.18569924259649
Epoch: 2026-06-21T12:58Z
TLE epoch observation values (Epoch: 2026-06-21T12:58:44.309Z)
Latitude
-0.00011°
Longitude
-104.3751°
Altitude
504.9 km
Speed
7.616 km/s
True Right ascension
00h 00m 11s
True Declination
0° 00' 00"
Sunlit
Object was in daylight at epoch
Visualization orbit readout
Latitude
Unknown
Longitude
Unknown
Altitude
Unknown
Speed
Unknown
Apparent Right ascension
Unknown
Apparent Declination
Unknown
Sunlit
N/A
Visualization observer readout
Local Sidereal Time
21:51:24
Azimuth
Unknown
Elevation
Unknown
Doppler factor
Unknown
Orbital elements
Apogee altitude
516.925 km
Perigee altitude
497.338 km
Semi-major axis
6,885.268 km
Eccentricity
0.00142
Inclination
97.4477°
RAAN
0.0491°
Arg. of periapsis
31.7391°
True anomaly
328.38433°
Mean anomaly
328.4697°
Eccentric anomaly
328.42703°
Mean motion
3.79894 °/min
Orbital period
94.76 mins
BSTAR
0.000098738
Loading maneuver chart data...
Computing Atmospheric mass density...
Loading historical data...
Loading historical data...
Loading historical data...
Loading historical data...
Loading historical data...
Loading historical data...
Loading historical data...

Documentation

Showing up to 5 results
|